Simultaneous Nadir Overpasses (SNOs) Predictions

Prediction of SNOs between LANDSAT-8 and NPP Satellite Orbit:

Table of predicted SNOs for the next 14.0 days since TLE Epoch: 4/30/2016
Index Date (LANDSAT-8) Time (LANDSAT-8) Lat,Lon (LANDSAT-8) SZA (LANDSAT-8 ) Date (NPP) Time (NPP) Lat,Lon (NPP) SZA (NPP ) Distance(km) Time Diff (sec)
1 04/30/2016 13:52:02 -70.32, 148.52 124.78 04/30/2016 13:51:11 -70.33, 148.48 124.77 1.84 51
2 04/30/2016 14:41:29 70.22, -43.98 55.11 04/30/2016 14:41:55 70.21, -44.03 55.11 2.18 26
3 04/30/2016 15:31:14 -69.23, 122.30 125.86 04/30/2016 15:32:20 -69.28, 124.67 125.87 93.59 66
4 05/03/2016 06:08:33 -70.30, -95.64 125.60 05/03/2016 06:08:05 -70.29, -95.70 125.60 2.23 28
5 05/03/2016 06:58:00 70.20, 71.85 54.29 05/03/2016 06:58:49 70.18, 71.79 54.27 3.33 49
6 05/05/2016 21:35:34 70.43,-147.22 53.78 05/05/2016 21:34:21 70.51,-147.59 53.87 16.29 73
7 05/05/2016 22:25:05 -70.27, 20.18 126.39 05/05/2016 22:25:00 -70.26, 20.12 126.40 2.92 5
8 05/05/2016 23:14:33 70.11,-172.40 53.45 05/05/2016 23:15:44 70.14,-172.40 53.47 3.64 71
9 05/08/2016 13:52:07 70.34, -31.49 52.96 05/08/2016 13:51:13 70.32, -31.53 52.94 2.90 54
10 05/08/2016 14:41:37 -70.24, 136.00 127.16 05/08/2016 14:41:55 -70.23, 135.93 127.16 2.94 18
11 05/08/2016 15:31:18 69.36, -57.57 51.98 05/08/2016 15:32:25 69.37, -55.49 51.95 81.66 67
12 05/11/2016 06:08:39 70.30, 84.32 52.22 05/11/2016 06:08:08 70.30, 84.27 52.22 1.65 31
13 05/11/2016 06:58:09 -70.20,-108.19
